Hourly Data Report for September 24, 2017

All times are specified in Local Standard Time (LST). Add 1 hour to adjust for Daylight Saving Time where and when it is observed.

MONCTON INTL A
NEW BRUNSWICK

46°06'44.000" N
64°40'43.000" W
70.70 m
8103201
71705
YQM

Download Data

Hourly Data (September 2017)
Hourly Data Report for September 24, 2017
Temp Definition
°C
Dew Point Temp Definition
°C
Rel Hum Definition
%
Wind Dir Definition
10's deg

Wind Spd Definition
km/h
Visibility Definition
km
Stn Press Definition
kPa
Hmdx Definition


Wind Chill Definition


Weather Definition


TIME
00:00 Legend Double Dagger 11.2 9.5 89 1 7 24.1 100.85     LegendNANA
01:00 Legend Double Dagger 13.0 10.3 84 8 3 24.1 100.87     LegendNANA
02:00 Legend Double Dagger 10.5 9.8 95 4 5 24.1 100.85     Clear
03:00 Legend Double Dagger 8.4 7.9 97 6 8 24.1 100.85     LegendNANA
04:00 Legend Double Dagger 10.0 9.3 95 7 7 24.1 100.85     LegendNANA
05:00 Legend Double Dagger 10.0 9.5 97 36 2 24.1 100.85     Clear
06:00 Legend Double Dagger 11.2 9.7 90 16 6 24.1 100.84     LegendNANA
07:00 Legend Double Dagger 9.1 8.5 96 4 5 24.1 100.90     LegendNANA
08:00 Legend Double Dagger 14.8 12.0 83 16 13 24.1 100.82     Mostly Cloudy
09:00 Legend Double Dagger 17.4 13.1 75 24 8 24.1 100.81     LegendNANA
10:00 Legend Double Dagger 20.5 15.4 72 19 14 24.1 100.72 25   LegendNANA
11:00 Legend Double Dagger 21.4 15.9 71 19 13 24.1 100.68 26   Mostly Cloudy
12:00 Legend Double Dagger 22.7 16.5 67 19 4 24.1 100.63 28   LegendNANA
13:00 Legend Double Dagger 24.4 17.4 65 20 4 24.1 100.60 30   LegendNANA
14:00 Legend Double Dagger 26.4 18.5 61 21 14 24.1 100.53 33   Mostly Cloudy
15:00 Legend Double Dagger 27.3 18.4 58 27 14 24.1 100.50 34   LegendNANA
16:00 Legend Double Dagger 26.9 18.3 59 28 9 24.1 100.48 33   LegendNANA
17:00 Legend Double Dagger 22.8 17.2 70 3 25 24.1 100.55 28   Mostly Cloudy
18:00 Legend Double Dagger 19.6 16.4 82 4 13 24.1 100.61     LegendNANA
19:00 Legend Double Dagger 18.7 16.7 88 36 1 24.1 100.71     LegendNANA
20:00 Legend Double Dagger 17.4 16.8 96 1 11 24.1 100.81     Mostly Cloudy
21:00 Legend Double Dagger 16.8 15.3 91 36 14 24.1 100.86     LegendNANA
22:00 Legend Double Dagger 16.1 14.9 92 2 5 24.1 100.88     LegendNANA
23:00 Legend Double Dagger 16.1 14.6 91 34 6 24.1 100.89     Mostly Cloudy

Notes on Data Quality.

Legend

  • E = Estimated
  • M = Missing
  • NA = Not Available
  • ‡ = Partner data that is not subject to review by the National Climate Archives
Date modified: